Location: Newark
(42.8481°N, 0.4872°E)
Time: 17:25:27
(UTC+00:00)

A-11 Canister half - Pass Details

Date: 03 November 2020
Orbit: 1525 x 1683 km, 47.3° (Epoch: 22 November)

Event Time Altitude Azimuth Distance (km) Brightness Sun altitude
Rises 20:23:36 0° 293° (WNW) 4,694 12.4 -39.8°
Reaches altitude 10° 20:27:18 10° 281° (W) 3,699 11.7 -40.4°
Maximum altitude 20:34:23 25° 231° (SW) 2,685 10.4 -41.6°
Enters shadow 20:36:34 23° 211° (SSW) 2,798 10.3 -42.0°
Drops below altitude 10° 20:41:28 10° 180° (S) 3,694 - -42.9°
Sets 20:45:13 0° 168° (SSE) 4,687 - -43.5°
